EDT,Max TemperatureF,Mean TemperatureF,Min TemperatureF,Max Dew PointF,MeanDew PointF,Min DewpointF,Max Humidity, Mean Humidity, Min Humidity, Max Sea Level PressureIn, Mean Sea Level PressureIn, Min Sea Level PressureIn, Max VisibilityMiles, Mean VisibilityMiles, Min VisibilityMiles, Max Wind SpeedMPH, Mean Wind SpeedMPH, Max Gust SpeedMPH,PrecipitationIn, CloudCover, Events, WindDirDegrees
2013-6-1,88,76,66,71,68,65,93,75,53,30.15,30.13,30.09,10,9,0,7,3,,0.00,2,Fog,163
2013-6-2,87,81,75,73,71,69,88,77,61,30.09,30.01,29.95,10,9,4,10,5,18,0.06,5,Rain-Thunderstorm,177
2013-6-3,91,84,77,75,72,65,87,74,43,29.96,29.92,29.87,10,10,2,15,6,22,0.00,5,Rain,216
2013-6-4,91,81,73,75,72,68,93,75,50,30.03,29.98,29.92,10,10,5,15,5,,0.01,4,Rain-Thunderstorm,143
2013-6-5,82,78,75,75,73,71,94,88,71,30.03,29.99,29.94,10,7,2,12,5,18,0.40,6,Fog-Rain-Thunderstorm,106
2013-6-6,80,75,71,74,72,69,94,90,76,29.96,29.82,29.66,10,6,0,20,5,28,2.05,8,Rain,145
2013-6-7,88,80,73,74,71,68,94,82,51,29.89,29.65,29.45,10,6,1,20,12,31,0.34,6,Rain,225
2013-6-8,90,81,73,75,71,68,82,73,53,30.10,29.99,29.89,10,10,10,14,7,,0.00,3,,221
2013-6-9,87,80,75,75,73,72,90,78,67,30.14,30.10,30.07,10,10,10,10,4,18,0.00,2,,175
2013-6-10,89,80,70,76,73,66,93,80,65,30.11,30.06,29.97,10,9,2,14,6,38,0.77,6,Rain-Thunderstorm,205
2013-6-11,91,82,72,72,71,69,93,72,50,30.06,30.01,29.95,10,9,2,14,8,18,0.09,4,Rain-Thunderstorm,255
2013-6-12,95,86,77,77,71,68,82,64,41,30.02,29.98,29.93,10,10,10,10,7,,0.00,2,,281
2013-6-13,96,86,78,75,72,68,87,63,41,29.94,29.86,29.77,10,10,7,17,9,28,0.00,2,,254
2013-6-14,89,80,71,72,63,57,84,56,35,30.01,29.87,29.74,10,10,10,14,8,18,0.00,2,,11
2013-6-15,84,76,68,68,64,60,90,66,46,30.14,30.09,30.01,10,10,10,12,4,20,0.00,1,,105
2013-6-16,87,78,68,69,65,61,93,68,46,30.18,30.12,30.08,10,9,2,8,2,,0.00,1,,179
2013-6-17,90,80,70,75,71,65,91,78,57,30.10,30.04,29.98,10,10,5,12,4,,0.08,5,Fog-Rain-Thunderstorm,209
2013-6-18,91,82,73,76,72,68,94,78,50,30.00,29.95,29.88,10,8,1,18,9,26,0.29,5,Rain-Thunderstorm,247
2013-6-19,88,80,72,75,70,49,93,76,40,30.05,29.98,29.92,10,9,1,17,8,28,0.41,6,Rain-Thunderstorm,245
2013-6-20,84,76,71,71,69,63,94,77,58,30.16,30.10,30.03,10,10,5,14,5,21,0.00,6,,54
2013-6-21,87,78,69,73,67,64,87,73,51,30.19,30.14,30.11,10,10,10,12,7,,0.00,4,,53
2013-6-22,84,78,73,74,71,69,90,78,61,30.18,30.14,30.11,10,10,9,10,4,,0.00,1,,84
2013-6-23,90,80,71,74,72,68,94,78,53,30.19,30.15,30.12,10,8,0,8,2,,0.00,1,Fog-Thunderstorm,100
2013-6-24,90,80,73,75,73,71,94,78,61,30.23,30.19,30.15,10,10,2,8,3,,0.01,4,Rain-Thunderstorm,183
2013-6-25,90,82,75,75,72,66,94,76,57,30.18,30.13,30.08,10,10,2,13,4,,0.00,5,Rain-Thunderstorm,209
2013-6-26,89,80,72,77,73,68,94,81,55,30.11,30.04,29.98,10,8,0,13,5,,0.56,5,Fog-Rain-Thunderstorm,236
2013-6-27,93,84,75,75,71,65,88,68,52,30.00,29.91,29.83,10,10,10,20,8,30,0.00,4,Rain-Thunderstorm,237
2013-6-28,93,84,75,78,72,68,85,70,54,29.86,29.78,29.70,10,10,10,16,12,23,0.00,3,,246
2013-6-29,89,80,73,75,72,68,91,78,59,29.79,29.75,29.73,10,9,1,15,9,22,0.18,5,Rain-Thunderstorm,224
2013-6-30,87,80,75,77,74,70,91,81,67,29.85,29.79,29.75,10,10,2,14,6,24,0.08,5,Rain-Thunderstorm,203